M I D A S
Marine Information and Data Acquisition System
Tripno 676 of the Zeeleeuw from 2004-03-26 07:15:52 to 2004-03-26 16:29:29
Back to CruiseResearch ActivitiesStationsMapUnderway DataData graphs

EquipmentUnitsComments
TimeDGPSUTC
LatitudeDGPSDM.mWGS84
LongitudeDGPSDM.mWGS84
SpeedMeteo Stationm/sRelative wind speed
DirectionMeteo StationdegRelative wind direction
TemperatureMeteo Stationdeg CelciusAir temperature
PressureMeteo StationPaAtmospheric pressure
HumidityMeteo Station%Relative humidity
Missing or incorrect values are displayed as -999
Metereological data collected by the RV Zeeleeuw from 2004-03-26 07:15:52 to 2004-03-26 16:29:29
Time Latitude Longitude Speed Direction Temperature Pressure Humidity
2004-03-26 07:16 51°13.597 2°56.08 5.2 276 4.5 102290 66
2004-03-26 07:17 51°13.628 2°55.982 3.3 228 4.4 102290 66
2004-03-26 07:18 51°13.667 2°55.854 3.9 262 4.4 102290 66
2004-03-26 07:19 51°13.689 2°55.762 4 293 4.3 102290 65
2004-03-26 07:20 51°13.686 2°55.747 3.6 342 4.3 102290 65
2004-03-26 07:21 51°13.722 2°55.734 4.7 25 4.3 102290 65
2004-03-26 07:23 51°13.799 2°55.658 7.6 38 4.3 102290 65
2004-03-26 07:24 51°13.91 2°55.576 7.7 28 4.2 102280 64
2004-03-26 07:25 51°14.03 2°55.492 6.4 46 4.1 102280 64
2004-03-26 07:26 51°14.161 2°55.39 7.7 37 4.1 102280 63
2004-03-26 07:27 51°14.29 2°55.205 8.1 51 4.1 102280 65
2004-03-26 07:28 51°14.388 2°54.941 7.7 59 4.1 102280 66
2004-03-26 07:29 51°14.555 2°54.747 12 43 4.1 102270 67
2004-03-26 07:30 51°14.766 2°54.644 11.9 31 4.2 102270 66
2004-03-26 07:31 51°14.982 2°54.565 12.7 30 4.2 102270 68
2004-03-26 07:32 51°15.194 2°54.489 12.3 28 4.2 102270 67
2004-03-26 07:33 51°15.412 2°54.425 11.9 27 4.2 102280 68
2004-03-26 07:34 51°15.633 2°54.363 13.7 22 4.3 102250 69
2004-03-26 07:35 51°15.861 2°54.321 13.5 23 4.4 102250 70
2004-03-26 07:36 51°16.078 2°54.288 12.9 26 4.5 102240 71
2004-03-26 07:37 51°16.23 2°54.27 8.9 22 4.4 102280 70
2004-03-26 07:38 51°16.266 2°54.284 8.2 347 4.3 102290 69
2004-03-26 07:39 51°16.265 2°54.293 7.3 320 4.3 102280 68
2004-03-26 07:40 51°16.255 2°54.299 5.8 322 4.3 102290 68
2004-03-26 07:41 51°16.248 2°54.357 6.4 330 4.3 102280 68
2004-03-26 07:42 51°16.243 2°54.418 7 321 4.4 102280 67
2004-03-26 07:43 51°16.239 2°54.472 7.4 325 4.4 102280 67
2004-03-26 07:44 51°16.235 2°54.545 7.4 319 4.4 102280 67
2004-03-26 07:45 51°16.227 2°54.616 6.5 336 4.5 102280 68
2004-03-26 07:46 51°16.221 2°54.682 7.5 334 4.5 102280 67
2004-03-26 07:47 51°16.218 2°54.744 7.5 334 4.5 102270 66
2004-03-26 07:48 51°16.216 2°54.808 6.8 335 4.5 102280 66
2004-03-26 07:49 51°16.214 2°54.876 7.7 336 4.6 102280 67
2004-03-26 07:50 51°16.208 2°54.944 6.7 335 4.6 102290 67
2004-03-26 07:51 51°16.201 2°55.015 6.4 334 4.6 102280 67
2004-03-26 07:52 51°16.196 2°55.084 7.8 335 4.7 102280 68
2004-03-26 07:53 51°16.193 2°55.151 7.5 328 4.7 102280 67
2004-03-26 07:54 51°16.196 2°55.214 7.9 331 4.6 102290 67
2004-03-26 07:55 51°16.204 2°55.277 7.5 332 4.6 102270 66
2004-03-26 07:56 51°16.212 2°55.343 5.9 335 4.6 102280 67
2004-03-26 07:57 51°16.212 2°55.412 8.3 331 4.7 102270 67
2004-03-26 07:58 51°16.201 2°55.482 7.6 325 4.6 102270 66
2004-03-26 07:59 51°16.185 2°55.551 7.6 311 4.6 102280 65
2004-03-26 08:00 51°16.174 2°55.619 7.5 327 4.6 102280 66
2004-03-26 08:01 51°16.174 2°55.684 7.9 326 4.6 102280 66
2004-03-26 08:02 51°16.175 2°55.751 6.7 322 4.6 102280 66
2004-03-26 08:03 51°16.178 2°55.818 6.5 344 4.6 102280 67
2004-03-26 08:04 51°16.182 2°55.885 7.5 335 4.7 102280 68
2004-03-26 08:05 51°16.184 2°55.953 6.9 330 4.7 102280 68
2004-03-26 08:06 51°16.188 2°56.021 7.9 339 4.7 102280 67
2004-03-26 08:07 51°16.19 2°56.087 7.1 333 4.7 102280 67
2004-03-26 08:08 51°16.199 2°56.151 7.1 342 4.7 102290 68
2004-03-26 08:09 51°16.206 2°56.218 7.2 338 4.8 102280 68
2004-03-26 08:10 51°16.211 2°56.285 7.8 355 4.7 102290 67
2004-03-26 08:11 51°16.214 2°56.354 8.5 337 4.7 102270 67
2004-03-26 08:12 51°16.211 2°56.423 6.9 324 4.7 102280 67
2004-03-26 08:13 51°16.186 2°56.468 6.9 298 4.7 102280 66
2004-03-26 08:14 51°16.155 2°56.474 6.7 294 4.7 102280 66
2004-03-26 08:15 51°16.119 2°56.466 5.9 258 4.8 102280 67
2004-03-26 08:16 51°16.067 2°56.425 4.3 199 4.7 102290 65
2004-03-26 08:17 51°16.024 2°56.343 2.7 185 4.6 102290 63
2004-03-26 08:18 51°15.992 2°56.256 4.2 168 4.7 102300 63
2004-03-26 08:19 51°15.969 2°56.163 3.8 147 4.6 102300 64
2004-03-26 08:20 51°15.956 2°56.067 5.5 119 4.5 102310 65
2004-03-26 08:21 51°15.949 2°55.971 5.5 116 4.5 102300 65
2004-03-26 08:22 51°15.946 2°55.878 7.1 120 4.6 102300 66
2004-03-26 08:23 51°15.947 2°55.785 6 114 4.6 102310 68
2004-03-26 08:24 51°15.951 2°55.695 5.2 109 4.6 102310 67
2004-03-26 08:25 51°15.959 2°55.608 4.9 98 4.6 102300 68
2004-03-26 08:26 51°15.969 2°55.523 7.1 104 4.6 102300 68
2004-03-26 08:27 51°15.979 2°55.438 6.5 102 4.6 102310 69
2004-03-26 08:28 51°15.993 2°55.354 6.9 83 4.6 102310 69
2004-03-26 08:29 51°16.005 2°55.273 7.4 87 4.7 102310 69
2004-03-26 08:30 51°16.016 2°55.188 8.1 84 4.6 102300 68
2004-03-26 08:31 51°16.026 2°55.104 6.8 99 4.5 102310 66
2004-03-26 08:32 51°16.036 2°55.019 6.4 106 4.5 102310 67
2004-03-26 08:33 51°16.047 2°54.934 6.5 107 4.5 102310 66
2004-03-26 08:34 51°16.06 2°54.849 6.5 81 4.5 102310 66
2004-03-26 08:35 51°16.067 2°54.762 6.4 89 4.5 102310 66
2004-03-26 08:36 51°16.074 2°54.674 7 107 4.6 102310 68
2004-03-26 08:37 51°16.081 2°54.583 6.1 95 4.6 102320 68
2004-03-26 08:38 51°16.089 2°54.493 5.4 95 4.6 102310 66
2004-03-26 08:39 51°16.1 2°54.406 7.3 93 4.6 102310 65
2004-03-26 08:40 51°16.111 2°54.321 5.7 100 4.5 102310 65
2004-03-26 08:41 51°16.124 2°54.238 7 93 4.6 102320 67
2004-03-26 08:42 51°16.136 2°54.158 6.1 89 4.6 102310 65
2004-03-26 08:43 51°16.151 2°54.08 6 79 4.5 102310 65
2004-03-26 08:44 51°16.167 2°54.005 7.3 85 4.5 102310 65
2004-03-26 08:45 51°16.182 2°53.927 7.2 86 4.6 102310 66
2004-03-26 08:46 51°16.197 2°53.848 6.1 95 4.5 102320 64
2004-03-26 08:47 51°16.209 2°53.769 5.7 83 4.5 102310 65
2004-03-26 08:48 51°16.215 2°53.702 5.7 87 4.5 102310 65
2004-03-26 08:49 51°16.215 2°53.641 6.8 96 4.6 102310 66
2004-03-26 08:50 51°16.266 2°53.495 10 60 4.5 102290 64
2004-03-26 08:51 51°16.423 2°53.253 11 39 4.5 102260 64
2004-03-26 08:52 51°16.617 2°53.051 10.1 39 4.4 102270 65
2004-03-26 08:53 51°16.812 2°52.859 11.6 35 4.4 102270 66
2004-03-26 08:54 51°16.993 2°52.662 11.6 44 4.4 102260 67
2004-03-26 08:55 51°17.181 2°52.467 10.9 38 4.4 102260 67
2004-03-26 08:56 51°17.369 2°52.261 10.9 39 4.5 102260 67
2004-03-26 08:57 51°17.56 2°52.049 11.3 36 4.4 102270 67
2004-03-26 08:58 51°17.743 2°51.842 11.7 41 4.4 102280 67
2004-03-26 08:59 51°17.929 2°51.632 11.7 37 4.4 102270 68
2004-03-26 09:00 51°18.119 2°51.415 12.6 40 4.5 102270 69
2004-03-26 09:01 51°18.31 2°51.195 11.3 33 4.5 102270 69
2004-03-26 09:02 51°18.457 2°51.047 9.2 34 4.6 102330 68
2004-03-26 09:03 51°18.514 2°51.013 7.1 350 4.6 102320 68
2004-03-26 09:04 51°18.52 2°50.998 6.9 325 4.7 102320 68
2004-03-26 09:05 51°18.531 2°51.026 7 337 4.7 102310 67
2004-03-26 09:06 51°18.553 2°51.077 8.1 342 4.7 102320 67
2004-03-26 09:07 51°18.571 2°51.128 8 340 4.8 102320 68
2004-03-26 09:08 51°18.587 2°51.181 6.8 353 4.8 102320 67
2004-03-26 09:09 51°18.609 2°51.23 6.4 351 4.9 102320 68
2004-03-26 09:10 51°18.638 2°51.273 6.6 357 4.9 102320 68
2004-03-26 09:11 51°18.666 2°51.318 7.5 340 4.9 102320 67
2004-03-26 09:12 51°18.682 2°51.371 7.4 338 4.9 102320 67
2004-03-26 09:13 51°18.699 2°51.419 8.4 344 4.9 102310 67
2004-03-26 09:14 51°18.721 2°51.46 8.2 348 4.9 102320 67
2004-03-26 09:15 51°18.745 2°51.503 7 346 4.9 102320 67
2004-03-26 09:16 51°18.767 2°51.547 8 346 4.9 102330 67
2004-03-26 09:17 51°18.788 2°51.593 6.5 342 4.9 102320 65
2004-03-26 09:18 51°18.807 2°51.641 7.7 344 5 102320 66
2004-03-26 09:19 51°18.827 2°51.689 7.5 340 5 102320 66
2004-03-26 09:20 51°18.845 2°51.735 7.1 344 5 102320 66
2004-03-26 09:21 51°18.862 2°51.784 8.1 338 5 102320 65
2004-03-26 09:22 51°18.878 2°51.834 8.1 331 5 102320 65
2004-03-26 09:23 51°18.894 2°51.886 7.8 329 5 102320 63
2004-03-26 09:24 51°18.908 2°51.936 8.4 335 5 102320 62
2004-03-26 09:25 51°18.922 2°51.986 7.3 334 5 102310 64
2004-03-26 09:26 51°18.94 2°52.033 7.4 351 5 102320 63
2004-03-26 09:27 51°18.96 2°52.077 7.7 345 4.9 102320 63
2004-03-26 09:28 51°18.988 2°52.128 7.4 350 5 102310 64
2004-03-26 09:29 51°19.009 2°52.159 9.1 349 5 102320 64
2004-03-26 09:30 51°19.032 2°52.2 8.1 345 5 102310 64
2004-03-26 09:31 51°19.051 2°52.245 7.6 344 4.9 102320 64
2004-03-26 09:32 51°19.068 2°52.295 6.8 343 4.9 102320 64
2004-03-26 09:33 51°19.078 2°52.348 8.2 346 4.9 102320 65
2004-03-26 09:34 51°19.089 2°52.4 8.3 347 5 102320 66
2004-03-26 09:35 51°19.105 2°52.448 6.9 341 4.9 102320 65
2004-03-26 09:36 51°19.105 2°52.499 6.5 316 4.9 102310 66
2004-03-26 09:37 51°19.08 2°52.523 6.7 296 4.9 102310 67
2004-03-26 09:38 51°19.049 2°52.53 5.9 282 4.9 102310 65
2004-03-26 09:39 51°18.988 2°52.525 3.1 216 4.8 102320 65
2004-03-26 09:40 51°18.928 2°52.44 2.3 192 4.9 102330 66
2004-03-26 09:41 51°18.88 2°52.343 3.5 161 5.1 102330 66
2004-03-26 09:42 51°18.841 2°52.247 4 156 4.9 102330 65
2004-03-26 09:43 51°18.808 2°52.152 3.2 148 4.8 102330 65
2004-03-26 09:44 51°18.78 2°52.06 2.6 142 4.7 102330 65
2004-03-26 09:45 51°18.751 2°51.969 4 226 4.7 102330 66
2004-03-26 09:46 51°18.722 2°51.877 4.8 143 4.8 102320 67
2004-03-26 09:47 51°18.691 2°51.785 3.6 140 4.8 102330 68
2004-03-26 09:48 51°18.66 2°51.694 4.5 140 4.9 102320 69
2004-03-26 09:49 51°18.628 2°51.605 4.8 137 4.9 102330 68
2004-03-26 09:50 51°18.596 2°51.516 4 134 4.9 102320 68
2004-03-26 09:51 51°18.564 2°51.426 4.9 143 4.8 102320 68
2004-03-26 09:52 51°18.532 2°51.335 3.8 144 4.8 102320 67
2004-03-26 09:53 51°18.5 2°51.245 2.7 156 4.7 102320 67
2004-03-26 09:54 51°18.468 2°51.152 3.3 158 4.7 102320 68
2004-03-26 09:55 51°18.437 2°51.061 3.7 150 4.7 102320 67
2004-03-26 09:56 51°18.408 2°50.971 4.1 144 4.7 102320 66
2004-03-26 09:57 51°18.378 2°50.877 3.7 143 4.7 102320 66
2004-03-26 09:58 51°18.347 2°50.782 3.7 147 4.7 102320 67
2004-03-26 09:59 51°18.316 2°50.689 3.5 151 4.8 102320 67
2004-03-26 10:00 51°18.286 2°50.595 3.7 133 4.8 102320 67
2004-03-26 10:01 51°18.256 2°50.501 3.2 145 4.9 102320 67
2004-03-26 10:02 51°18.227 2°50.409 3 149 4.9 102320 66
2004-03-26 10:03 51°18.197 2°50.317 3.3 169 4.9 102320 67
2004-03-26 10:04 51°18.166 2°50.226 3 172 4.9 102310 67
2004-03-26 10:05 51°18.134 2°50.134 3.8 135 5 102310 68
2004-03-26 10:06 51°18.102 2°50.042 3.2 142 5 102310 67
2004-03-26 10:07 51°18.071 2°49.951 3.7 142 5 102310 67
2004-03-26 10:08 51°18.041 2°49.857 4.1 135 5 102310 67
2004-03-26 10:09 51°18.014 2°49.764 4.6 134 5 102320 66
2004-03-26 10:10 51°17.994 2°49.68 4.1 126 4.9 102310 66
2004-03-26 10:11 51°17.997 2°49.564 5.2 63 5 102300 68
2004-03-26 10:12 51°18.078 2°49.494 7.9 15 4.9 102290 67
2004-03-26 10:13 51°18.194 2°49.615 11.8 8 4.9 102290 67
2004-03-26 10:14 51°18.341 2°49.817 12.9 360 4.9 102280 67
2004-03-26 10:15 51°18.451 2°50.08 11 354 4.9 102270 66
2004-03-26 10:16 51°18.541 2°50.363 11.3 357 5 102270 67
2004-03-26 10:17 51°18.633 2°50.646 11.3 354 5.1 102280 67
2004-03-26 10:18 51°18.726 2°50.931 12.6 354 5.1 102270 65
2004-03-26 10:19 51°18.818 2°51.217 12.3 343 5.1 102270 65
2004-03-26 10:20 51°18.896 2°51.515 11 345 5.2 102270 64
2004-03-26 10:21 51°18.975 2°51.812 12.1 346 5.2 102270 64
2004-03-26 10:22 51°19.055 2°52.112 11.7 354 5.3 102270 64
2004-03-26 10:23 51°19.132 2°52.4 12 346 5.3 102280 64
2004-03-26 10:24 51°19.213 2°52.698 11.7   5.3 102270 65
2004-03-26 10:25 51°19.293 2°52.995 11.5 356 5.2 102280 65
2004-03-26 10:26 51°19.374 2°53.293 11.5 350 5.2 102290 65
2004-03-26 10:27 51°19.447 2°53.597 12 344 5.2 102290 65
2004-03-26 10:28 51°19.515 2°53.898 11.8 353 5.2 102280 65
2004-03-26 10:29 51°19.585 2°54.205 11.3 349 5.2 102280 65
2004-03-26 10:30 51°19.653 2°54.513 11.5 356 5.2 102290 66
2004-03-26 10:31 51°19.721 2°54.821 11.4 349 5.2 102280 65
2004-03-26 10:32 51°19.791 2°55.128 10.9 352 5.3 102280 66
2004-03-26 10:33 51°19.861 2°55.441 11 350 5.2 102290 67
2004-03-26 10:34 51°19.931 2°55.745 11.1 354 5.2 102270 67
2004-03-26 10:35 51°20.002 2°56.056 10.5 353 5.3 102290 67
2004-03-26 10:36 51°20.072 2°56.368 12.2 349 5.2 102280 67
2004-03-26 10:37 51°20.143 2°56.687 11 355 5.2 102280 66
2004-03-26 10:38 51°20.215 2°57.002 11.6 355 5.3 102280 67
2004-03-26 10:39 51°20.286 2°57.312 11.6 351 5.2 102270 67
2004-03-26 10:40 51°20.358 2°57.627 10.9 358 5.2 102280 67
2004-03-26 10:41 51°20.428 2°57.943 10.5   5.2 102280 67
2004-03-26 10:42 51°20.502 2°58.247 11.6 359 5.2 102280 66
2004-03-26 10:43 51°20.591 2°58.537 11.2 351 5.1 102270 66
2004-03-26 10:44 51°20.681 2°58.829 12.1 356 5.2 102280 66
2004-03-26 10:45 51°20.771 2°59.123 11.7 358 5.2 102280 66
2004-03-26 10:46 51°20.856 2°59.42 11.2 352 5.2 102270 66
2004-03-26 10:47 51°20.934 2°59.72 9.5 349 5.2 102270 66
2004-03-26 10:48 51°20.975 2°59.901 7.7 337 5.3 102280 66
2004-03-26 10:49 51°20.987 2°59.975 7.5 338 5.3 102280 65
2004-03-26 10:50 51°20.986 2°59.988 6 319 5.3 102290 65
2004-03-26 10:51 51°20.974 2°59.991 5.7 326 5.4 102290 64
2004-03-26 10:52 51°20.975 3°0.056 5.8 335 5.4 102290 63
2004-03-26 10:53 51°20.973 3°0.128 5.4 327 5.5 102290 64
2004-03-26 10:54 51°20.973 3°0.194 5.8 335 5.5 102290 64
2004-03-26 10:55 51°20.978 3°0.259 6.9 332 5.5 102280 64
2004-03-26 10:56 51°20.986 3°0.322 6 340 5.6 102280 64
2004-03-26 10:57 51°20.995 3°0.384 5.8 337 5.5 102280 63
2004-03-26 10:58 51°21.004 3°0.447 6.2 328 5.6 102280 64
2004-03-26 10:59 51°21.012 3°0.513 6.2 325 5.5 102280 62
2004-03-26 11:00 51°21.021 3°0.577 6.4 339 5.6 102290 63
2004-03-26 11:01 51°21.029 3°0.639 5.3 320 5.5 102290 63
2004-03-26 11:02 51°21.038 3°0.704 6.3 342 5.6 102280 63
2004-03-26 11:03 51°21.047 3°0.766 6.8 345 5.5 102290 62
2004-03-26 11:04 51°21.057 3°0.83 5.5 347 5.5 102290 62
2004-03-26 11:05 51°21.067 3°0.893 5.6 345 5.4 102290 63
2004-03-26 11:06 51°21.076 3°0.957 4.4 353 5.5 102290 63
2004-03-26 11:07 51°21.086 3°1.02 6 346 5.5 102280 63
2004-03-26 11:08 51°21.096 3°1.083 5.7 341 5.6 102280 63
2004-03-26 11:09 51°21.105 3°1.147 5 340 5.6 102290 63
2004-03-26 11:10 51°21.116 3°1.211 5 333 5.6 102280 64
2004-03-26 11:11 51°21.127 3°1.276 5 349 5.7 102280 64
2004-03-26 11:12 51°21.137 3°1.341 4.6 351 5.7 102280 64
2004-03-26 11:13 51°21.147 3°1.405 5.8 338 5.7 102280 63
2004-03-26 11:14 51°21.157 3°1.471 6 329 5.7 102280 64
2004-03-26 11:15 51°21.166 3°1.535 4.9 331 5.7 102270 62
2004-03-26 11:16 51°21.177 3°1.603 5.4 336 5.7 102270 63
2004-03-26 11:17 51°21.188 3°1.668 5.6 346 5.7 102270 63
2004-03-26 11:18 51°21.199 3°1.736 6.4 347 5.7 102280 62
2004-03-26 11:19 51°21.21 3°1.802 5.6 338 5.6 102270 62
2004-03-26 11:20 51°21.221 3°1.87 5.5 341 5.7 102270 63
2004-03-26 11:21 51°21.232 3°1.937 5.9 339 5.7 102280 63
2004-03-26 11:22 51°21.241 3°2.004 4.8 342 5.7 102260 62
2004-03-26 11:23 51°21.243 3°2.068 5.8 43 5.7 102270 63
2004-03-26 11:24 51°21.226 3°2.103 4.9 304 5.7 102260 63
2004-03-26 11:25 51°21.201 3°2.118 4.3 296 5.6 102270 62
2004-03-26 11:26 51°21.158 3°2.128 4.1 262 5.6 102270 62
2004-03-26 11:27 51°21.097 3°2.105 2.5 237 5.6 102270 62
2004-03-26 11:28 51°21.035 3°2.061 2.6 216 5.5 102270 63
2004-03-26 11:29 51°20.984 3°2.001 1.7 190 5.5 102270 63
2004-03-26 11:30 51°20.944 3°1.932 2.2 154 5.6 102270 63
2004-03-26 11:31 51°20.91 3°1.863 2.7 145 5.5 102270 63
2004-03-26 11:32 51°20.877 3°1.796 3.4 160 5.5 102270 64
2004-03-26 11:33 51°20.844 3°1.731 3.2 159 5.4 102270 63
2004-03-26 11:34 51°20.81 3°1.666 2.7 169 5.3 102270 63
2004-03-26 11:35 51°20.775 3°1.603 3 172 5.3 102270 64
2004-03-26 11:36 51°20.74 3°1.541 4.2 160 5.4 102270 66
2004-03-26 11:37 51°20.705 3°1.476 3.5 162 5.3 102270 64
2004-03-26 11:38 51°20.671 3°1.408 3.9 148 5.3 102260 65
2004-03-26 11:39 51°20.643 3°1.34 4.1 136 5.2 102270 64
2004-03-26 11:40 51°20.619 3°1.271 3.1 136 5.3 102270 65
2004-03-26 11:41 51°20.594 3°1.202 4 127 5.3 102260 65
2004-03-26 11:42 51°20.569 3°1.134 4 138 5.4 102270 65
2004-03-26 11:43 51°20.541 3°1.06 4.2 137 5.3 102270 64
2004-03-26 11:44 51°20.513 3°0.992 4.4 132 5.3 102260 65
2004-03-26 11:45 51°20.483 3°0.92 3.6 128 5.3 102260 65
2004-03-26 11:46 51°20.453 3°0.849 3.1 130 5.3 102260 64
2004-03-26 11:47 51°20.423 3°0.775 2.8 140 5.3 102260 65
2004-03-26 11:48 51°20.395 3°0.702 3.5 134 5.4 102260 66
2004-03-26 11:49 51°20.37 3°0.629 3.7 135 5.4 102260 65
2004-03-26 11:50 51°20.346 3°0.556 3.2 131 5.4 102260 65
2004-03-26 11:51 51°20.323 3°0.489 3.7 130 5.4 102260 65
2004-03-26 11:52 51°20.299 3°0.423 4.2 125 5.4 102260 64
2004-03-26 11:53 51°20.277 3°0.357 3.4 133 5.4 102260 64
2004-03-26 11:54 51°20.253 3°0.289 5.2 125 5.4 102260 65
2004-03-26 11:55 51°20.227 3°0.221 5.1 126 5.4 102260 63
2004-03-26 11:56 51°20.203 3°0.152 5.1 121 5.4 102270 63
2004-03-26 11:57 51°20.177 3°0.082 4.5 120 5.5 102260 65
2004-03-26 11:58 51°20.156 3°0.026 4.9 123 5.4 102270 64
2004-03-26 11:59 51°20.129 2°59.949 4.5 105 5.4 102260 63
2004-03-26 12:00 51°20.126 2°59.833 4.8 69 5.4 102260 63
2004-03-26 12:01 51°20.159 2°59.741 7.2 44 5.4 102260 64
2004-03-26 12:02 51°20.205 2°59.684 5.9 26 5.3 102250 64
2004-03-26 12:03 51°20.237 2°59.66 5.7 360 5.4 102250 63
2004-03-26 12:04 51°20.273 2°59.67 5.9 2 5.6 102250 64
2004-03-26 12:05 51°20.294 2°59.712 6.8 329 5.6 102250 63
2004-03-26 12:06 51°20.291 2°59.777 5.4 300 5.7 102250 63
2004-03-26 12:07 51°20.26 2°59.847 4.8 270 5.6 102240 64
2004-03-26 12:08 51°20.22 2°59.889 3.4 249 5.6 102260 63
2004-03-26 12:09 51°20.187 2°59.907 4.2 261 5.5 102260 63
2004-03-26 12:10 51°20.158 2°59.912 3.2 258 5.6 102250 64
2004-03-26 12:11 51°20.115 2°59.921 4.1 263 5.6 102250 64
2004-03-26 12:12 51°20.06 2°59.92 3.6 249 5.6 102250 63
2004-03-26 12:13 51°20.005 2°59.905 2.8 230 5.6 102260 63
2004-03-26 12:14 51°19.961 2°59.886 3.5 213 5.6 102260 64
2004-03-26 12:15 51°19.917 2°59.862 1.5 191 5.6 102260 63
2004-03-26 12:16 51°19.847 2°59.796 2.4 124 5.7 102260 63
2004-03-26 12:17 51°19.79 2°59.66 4.4 100 5.8 102260 64
2004-03-26 12:18 51°19.773 2°59.536 6.4 86 5.7 102260 63
2004-03-26 12:19 51°19.77 2°59.44 6 83 5.5 102250 62
2004-03-26 12:20 51°19.767 2°59.376 5.6 86 5.5 102260 63
2004-03-26 12:21 51°19.762 2°59.327 5.8 88 5.5 102250 63
2004-03-26 12:22 51°19.755 2°59.282 4.9 81 5.5 102250 63
2004-03-26 12:23 51°19.772 2°59.211 4.1 72 5.4 102250 62
2004-03-26 12:24 51°19.781 2°59.156 4.4 66 5.4 102250 62
2004-03-26 12:25 51°19.783 2°59.11 4.6 52 5.4 102240 63
2004-03-26 12:26 51°19.781 2°59.07 4.5 53 5.3 102240 62
2004-03-26 12:27 51°19.776 2°59.035 3.7 44 5.3 102250 63
2004-03-26 12:28 51°19.77 2°59.003 4.5 41 5.3 102240 62
2004-03-26 12:29 51°19.761 2°58.972 5.1 53 5.3 102230 63
2004-03-26 12:30 51°19.75 2°58.944 5.9 63 5.4 102230 64
2004-03-26 12:31 51°19.737 2°58.914 5.5 78 5.4 102240 63
2004-03-26 12:32 51°19.723 2°58.885 3.6 79 5.4 102240 61
2004-03-26 12:33 51°19.71 2°58.856 4.6 94 5.4 102240 62
2004-03-26 12:34 51°19.695 2°58.826 5.3 82 5.5 102240 62
2004-03-26 12:35 51°19.681 2°58.796 4.9 85 5.5 102230 63
2004-03-26 12:36 51°19.665 2°58.767 6 93 5.4 102240 62
2004-03-26 12:37 51°19.649 2°58.737 5 84 5.5 102230 64
2004-03-26 12:38 51°19.632 2°58.708 4.5 89 5.6 102230 63
2004-03-26 12:39 51°19.617 2°58.681 3.8 92 5.5 102240 61
2004-03-26 12:40 51°19.601 2°58.651 4.7 103 5.6 102240 63
2004-03-26 12:41 51°19.585 2°58.623 4.7 98 5.6 102240 61
2004-03-26 12:42 51°19.57 2°58.594 4.5 108 5.6 102230 60
2004-03-26 12:43 51°19.555 2°58.565 4.1 105 5.7 102240 61
2004-03-26 12:44 51°19.566 2°58.503 6.1 35 5.7 102230 62
2004-03-26 12:45 51°19.643 2°58.449 8.3 7 5.7 102220 63
2004-03-26 12:46 51°19.741 2°58.481 7.7 1 5.7 102220 62
2004-03-26 12:47 51°19.836 2°58.555 7.6 355 5.7 102220 61
2004-03-26 12:48 51°19.926 2°58.657 7.8 350 5.8 102220 61
2004-03-26 12:49 51°19.98 2°58.74 5.7 339 5.9 102220 60
2004-03-26 12:50 51°19.995 2°58.8 4.6 327 6 102220 61
2004-03-26 12:51 51°20.014 2°58.896 7.5 344 6.1 102220 60
2004-03-26 12:52 51°20.151 2°59.047 11.7 353 6.1 102200 60
2004-03-26 12:53 51°20.313 2°59.27 11.7 349 6.1 102190 60
2004-03-26 12:54 51°20.465 2°59.514 11.3 350 6.1 102200 62
2004-03-26 12:55 51°20.623 2°59.749 11.5 360 6.1 102200 61
2004-03-26 12:56 51°20.793 2°59.954 11.8 352 6.1 102200 62
2004-03-26 12:57 51°20.967 3°0.169 10.8 353 6 102200 61
2004-03-26 12:58 51°21.145 3°0.387 13.1 350 6.1 102180 63
2004-03-26 12:59 51°21.31 3°0.594 11.3 354 6 102180 63
2004-03-26 13:00 51°21.482 3°0.812 11.4 349 5.9 102190 61
2004-03-26 13:01 51°21.654 3°1.025 11.4 357 5.9 102190 63
2004-03-26 13:02 51°21.823 3°1.237 12.7 357 5.7 102180 62
2004-03-26 13:03 51°21.989 3°1.449 10.2 351 5.7 102180 61
2004-03-26 13:04 51°22.148 3°1.692 10.7 352 5.8 102190 61
2004-03-26 13:05 51°22.306 3°1.929 12.8 351 5.8 102180 61
2004-03-26 13:06 51°22.462 3°2.168 12.8 349 5.9 102170 62
2004-03-26 13:07 51°22.618 3°2.408 11.2 347 5.9 102170 62
2004-03-26 13:08 51°22.775 3°2.647 11.6 350 5.9 102170 63
2004-03-26 13:09 51°22.93 3°2.896 12.7 356 5.9 102170 62
2004-03-26 13:10 51°23.083 3°3.146 12 353 5.9 102180 62
2004-03-26 13:11 51°23.242 3°3.405 12.8 345 5.9 102170 61
2004-03-26 13:12 51°23.401 3°3.663 11.3 344 5.9 102170 61
2004-03-26 13:13 51°23.559 3°3.921 11.7 344 5.9 102170 61
2004-03-26 13:14 51°23.716 3°4.179 12.4 349 5.9 102170 61
2004-03-26 13:15 51°23.874 3°4.437 12.4 351 5.9 102160 60
2004-03-26 13:16 51°24.03 3°4.692 11.5 356 5.9 102160 60
2004-03-26 13:17 51°24.185 3°4.95 12.4 352 5.9 102160 60
2004-03-26 13:18 51°24.338 3°5.206 12.2 349 5.8 102160 58
2004-03-26 13:19 51°24.488 3°5.457 11.5 352 5.8 102160 68
2004-03-26 13:20 51°24.648 3°5.725 12.6 350 5.9 102160 63
2004-03-26 13:21 51°24.795 3°5.973 12.1 347 5.9 102160 59
2004-03-26 13:22 51°24.946 3°6.226 10.9 346 5.8 102160 57
2004-03-26 13:23 51°25.095 3°6.479 11.5 349 5.8 102160 59
2004-03-26 13:24 51°25.242 3°6.732 11.7 345 5.8 102160 58
2004-03-26 13:25 51°25.404 3°6.954 12.6 350 5.8 102160 59
2004-03-26 13:26 51°25.568 3°7.173 10.5 347 5.8 102160 58
2004-03-26 13:27 51°25.733 3°7.392 10.6 351 5.8 102160 58
2004-03-26 13:28 51°25.893 3°7.607 12.2 350 5.8 102160 59
2004-03-26 13:29 51°26.057 3°7.829 12.6 351 5.8 102160 58
2004-03-26 13:30 51°26.213 3°8.046 11 349 5.8 102160 58
2004-03-26 13:31 51°26.368 3°8.259 9 344 5.7 102150 58
2004-03-26 13:32 51°26.449 3°8.364 7.2 353 5.7 102160 58
2004-03-26 13:33 51°26.446 3°8.386 5.3 318 5.8 102170 59
2004-03-26 13:34 51°26.425 3°8.403 6 272 5.9 102170 59
2004-03-26 13:35 51°26.397 3°8.466 5.5 299 5.8 102170 57
2004-03-26 13:36 51°26.367 3°8.562 4.8 288 5.8 102170 57
2004-03-26 13:37 51°26.338 3°8.638 6.1 281 5.8 102160 59
2004-03-26 13:38 51°26.308 3°8.705 5.3 272 5.8 102170 58
2004-03-26 13:39 51°26.28 3°8.768 5.6 268 5.7 102160 58
2004-03-26 13:40 51°26.253 3°8.829 5 283 5.7 102170 58
2004-03-26 13:41 51°26.227 3°8.889 5.3 280 5.7 102170 57
2004-03-26 13:42 51°26.197 3°8.95 5.1 265 5.7 102170 59
2004-03-26 13:43 51°26.154 3°9 3 224 5.7 102160 57
2004-03-26 13:44 51°26.096 3°9.021 3 176 5.7 102170 60
2004-03-26 13:45 51°26.041 3°8.997 4.9 121 5.9 102170 58
2004-03-26 13:46 51°26.005 3°8.947 5 82 5.8 102170 57
2004-03-26 13:47 51°25.989 3°8.875 5.6 49 5.7 102160 56
2004-03-26 13:48 51°25.995 3°8.802 6.7 30 5.6 102160 58
2004-03-26 13:49 51°26.013 3°8.733 6.6 29 5.6 102160 58
2004-03-26 13:50 51°26.041 3°8.685 7.4 31 5.7 102150 61
2004-03-26 13:51 51°26.074 3°8.643 6.5 29 5.7 102150 57
2004-03-26 13:52 51°26.103 3°8.589 6.4 37 5.6 102150 59
2004-03-26 13:53 51°26.136 3°8.543 6.1 29 5.5 102150 58
2004-03-26 13:54 51°26.173 3°8.512 7.6 15 5.5 102150 59
2004-03-26 13:55 51°26.21 3°8.48 6.4 18 5.6 102150 58
2004-03-26 13:56 51°26.253 3°8.466 8.1 10 5.7 102150 58
2004-03-26 13:57 51°26.293 3°8.469 7.5 7 5.7 102150 60
2004-03-26 13:58 51°26.335 3°8.471 7.3 14 5.7 102140 58
2004-03-26 13:59 51°26.377 3°8.464 7.4 6 5.6 102150 58
2004-03-26 14:00 51°26.423 3°8.466 6.8 351 5.7 102140 61
2004-03-26 14:01 51°26.465 3°8.499 7.4 346 5.6 102140 59
2004-03-26 14:02 51°26.507 3°8.532 6.6 355 5.7 102140 60
2004-03-26 14:03 51°26.55 3°8.564 6.9 349 5.7 102140 59
2004-03-26 14:04 51°26.594 3°8.598 8.4 9 5.8 102140 61
2004-03-26 14:05 51°26.639 3°8.619 7.7 14 5.7 102140 57
2004-03-26 14:06 51°26.684 3°8.623 7.4 22 5.7 102130 59
2004-03-26 14:07 51°26.728 3°8.611 7.2 14 5.8 102130 59
2004-03-26 14:08 51°26.764 3°8.604 6.2 353 5.8 102130 60
2004-03-26 14:09 51°26.783 3°8.619 6 356 5.8 102140 60
2004-03-26 14:10 51°26.79 3°8.641 6.3 357 5.7 102130 59
2004-03-26 14:11 51°26.809 3°8.67 8.1   5.7 102130 59
2004-03-26 14:12 51°26.849 3°8.721 8.9 338 5.7 102130 59
2004-03-26 14:13 51°26.872 3°8.818 6.6 306 5.7 102130 60
2004-03-26 14:14 51°26.865 3°8.937 5.4 280 5.7 102120 60
2004-03-26 14:15 51°26.824 3°9.054 3.4 254 5.6 102130 60
2004-03-26 14:16 51°26.769 3°9.13 4.1 232 5.6 102130 61
2004-03-26 14:17 51°26.706 3°9.18 2.4 202 5.7 102130 60
2004-03-26 14:18 51°26.64 3°9.204 2.6 176 5.7 102130 63
2004-03-26 14:19 51°26.578 3°9.206 5.2 163 5.9 102130 62
2004-03-26 14:20 51°26.524 3°9.187 5 136 5.8 102130 61
2004-03-26 14:21 51°26.477 3°9.154 4.8 126 5.7 102130 61
2004-03-26 14:22 51°26.439 3°9.113 5.9 116 5.7 102130 62
2004-03-26 14:23 51°26.413 3°9.069 6.3 106 5.6 102120 63
2004-03-26 14:24 51°26.393 3°9.024 6.9 99 5.5 102120 61
2004-03-26 14:25 51°26.377 3°8.978 7.2 85 5.5 102120 62
2004-03-26 14:26 51°26.37 3°8.93 6.2 72 5.5 102120 62
2004-03-26 14:27 51°26.366 3°8.855 8.7 84 5.5 102110 63
2004-03-26 14:28 51°26.362 3°8.763 7.5 86 5.5 102120 63
2004-03-26 14:29 51°26.362 3°8.666 6.9 82 5.4 102110 61
2004-03-26 14:30 51°26.365 3°8.576 5.1 74 5.4 102110 60
2004-03-26 14:31 51°26.37 3°8.483 6.1 82 5.4 102110 59
2004-03-26 14:32 51°26.369 3°8.388 7.1 88 5.4 102110 63
2004-03-26 14:33 51°26.365 3°8.296 7.4 88 5.5 102110 59
2004-03-26 14:34 51°26.367 3°8.218 5.7 74 5.5 102110 60
2004-03-26 14:35 51°26.375 3°8.15 7 63 5.5 102110 61
2004-03-26 14:36 51°26.385 3°8.078 6.9 60 5.4 102100 61
2004-03-26 14:37 51°26.397 3°8.012 7.3 79 5.4 102100 62
2004-03-26 14:38 51°26.409 3°7.941 6.8 68 5.4 102100 62
2004-03-26 14:39 51°26.421 3°7.871 5.1 76 5.4 102100 61
2004-03-26 14:40 51°26.431 3°7.822 5.7 79 5.4 102100 62
2004-03-26 14:41 51°26.435 3°7.794 6.9 67 5.4 102110 59
2004-03-26 14:42 51°26.429 3°7.679 6.7 78 5.4 102090 63
2004-03-26 14:43 51°26.337 3°7.427 7.3 74 5.5 102080 63
2004-03-26 14:44 51°26.22 3°7.135 6.2 70 5.5 102060 62
2004-03-26 14:45 51°26.089 3°6.852 4 76 5.5 102070 61
2004-03-26 14:46 51°25.929 3°6.606 3.8 83 5.5 102070 61
2004-03-26 14:47 51°25.755 3°6.363 3.1 76 5.6 102070 65
2004-03-26 14:48 51°25.58 3°6.138 4.2 62 5.6 102070 62
2004-03-26 14:49 51°25.408 3°5.93 3.9 44 5.6 102070 61
2004-03-26 14:50 51°25.227 3°5.72 2.5 74 5.6 102070 64
2004-03-26 14:51 51°25.042 3°5.519 5 92 5.7 102060 63
2004-03-26 14:52 51°24.861 3°5.32 4.1 91 5.7 102070 64
2004-03-26 14:53 51°24.679 3°5.122 3.7 80 5.7 102060 64
2004-03-26 14:54 51°24.496 3°4.928 5.1 62 5.7 102060 63
2004-03-26 14:55 51°24.306 3°4.727 5 58 5.7 102060 63
2004-03-26 14:56 51°24.128 3°4.538 3.2 52 5.6 102060 62
2004-03-26 14:57 51°23.942 3°4.336 3.9 70 5.7 102060 64
2004-03-26 14:58 51°23.769 3°4.154 4.1 48 5.6 102060 61
2004-03-26 14:59 51°23.593 3°3.966 5.1 60 5.7 102060 62
2004-03-26 15:00 51°23.417 3°3.779 3.8 70 5.7 102060 61
2004-03-26 15:01 51°23.25 3°3.577 4.8 76 5.7 102060 62
2004-03-26 15:02 51°23.075 3°3.372 4.6 69 5.7 102080 63
2004-03-26 15:03 51°22.917 3°3.171 5.2 72 5.7 102050 61
2004-03-26 15:04 51°22.758 3°2.955 3.7 82 5.7 102050 62
2004-03-26 15:05 51°22.6 3°2.739 3.2 71 5.7 102050 63
2004-03-26 15:06 51°22.435 3°2.521 7 80 5.7 102050 63
2004-03-26 15:07 51°22.28 3°2.316 5.8 97 5.8 102040 63
2004-03-26 15:08 51°22.128 3°2.091 5.6 85 5.8 102050 63
2004-03-26 15:09 51°21.977 3°1.86 4.9 68 5.8 102040 62
2004-03-26 15:10 51°21.829 3°1.626 5.9 95 5.8 102040 62
2004-03-26 15:11 51°21.68 3°1.393 4.5 79 5.7 102040 61
2004-03-26 15:12 51°21.53 3°1.16 5.9 83 5.8 102040 63
2004-03-26 15:13 51°21.375 3°0.917 4.9 81 5.7 102040 61
2004-03-26 15:14 51°21.226 3°0.684 6.5 86 5.8 102030 62
2004-03-26 15:15 51°21.083 3°0.458 5.8 77 5.7 102030 60
2004-03-26 15:16 51°20.974 3°0.282 6.9 101 5.8 102070 61
2004-03-26 15:17 51°20.936 3°0.232 6.4 143 5.8 102050 60
2004-03-26 15:18 51°20.917 3°0.243 8.2 133 5.7 102070 60
2004-03-26 15:19 51°20.894 3°0.229 7 126 5.8 102060 63
2004-03-26 15:20 51°20.868 3°0.18 6.5 119 5.8 102060 62
2004-03-26 15:21 51°20.846 3°0.125 7.1 129 5.8 102060 59
2004-03-26 15:22 51°20.824 3°0.075 6.8 132 5.8 102060 60
2004-03-26 15:23 51°20.806 3°0.019 6.2 125 5.7 102060 58
2004-03-26 15:24 51°20.792 2°59.957 6.9 120 5.8 102060 63
2004-03-26 15:25 51°20.783 2°59.897 6.7 112 5.8 102060 59
2004-03-26 15:26 51°20.776 2°59.834 7.1 106 5.7 102060 61
2004-03-26 15:27 51°20.767 2°59.774 5.8 117 5.7 102060 62
2004-03-26 15:28 51°20.756 2°59.714 4.9 124 5.7 102060 58
2004-03-26 15:29 51°20.744 2°59.656 5.2 114 5.8 102060 61
2004-03-26 15:30 51°20.728 2°59.592 6.5 125 5.7 102050 62
2004-03-26 15:31 51°20.713 2°59.531 6.3 118 5.7 102060 61
2004-03-26 15:32 51°20.702 2°59.463 6.6 108 5.7 102050 61
2004-03-26 15:33 51°20.694 2°59.4 7.5 112 5.8 102050 62
2004-03-26 15:34 51°20.689 2°59.331 7 107 5.7 102050 62
2004-03-26 15:35 51°20.689 2°59.265 6.7 102 5.7 102050 60
2004-03-26 15:36 51°20.689 2°59.193 6.3 108 5.7 102040 62
2004-03-26 15:37 51°20.685 2°59.124 6.9 110 5.7 102050 61
2004-03-26 15:38 51°20.675 2°59.058 6.1 115 5.7 102040 60
2004-03-26 15:39 51°20.66 2°58.995 5 119 5.7 102050 60
2004-03-26 15:40 51°20.641 2°58.935 6 111 5.7 102040 62
2004-03-26 15:41 51°20.619 2°58.881 5.9 127 5.7 102050 62
2004-03-26 15:42 51°20.596 2°58.825 5.6 121 5.7 102040 61
2004-03-26 15:43 51°20.581 2°58.763 5.4 116 5.7 102040 61
2004-03-26 15:44 51°20.578 2°58.696 6.5 110 5.7 102040 62
2004-03-26 15:45 51°20.585 2°58.625 6.9 101 5.7 102040 62
2004-03-26 15:46 51°20.602 2°58.554 6.7 98 5.7 102030 64
2004-03-26 15:47 51°20.626 2°58.495 6.7 82 5.7 102030 62
2004-03-26 15:48 51°20.647 2°58.468 7.5 78 5.7 102030 65
2004-03-26 15:49 51°20.668 2°58.445 6.4 78 5.7 102030 63
2004-03-26 15:50 51°20.631 2°58.312 3.9 85 5.7 102010 62
2004-03-26 15:51 51°20.492 2°58.102 4.7 68 5.7 102000 64
2004-03-26 15:52 51°20.337 2°57.872 5.1 65 5.6 102000 62
2004-03-26 15:53 51°20.188 2°57.651 6.8 82 5.7 101990 65
2004-03-26 15:54 51°20.034 2°57.439 5.3 88 5.6 101990 64
2004-03-26 15:55 51°19.875 2°57.218 3.9 77 5.7 101990 64
2004-03-26 15:56 51°19.714 2°56.999 5.2 64 5.7 102000 63
2004-03-26 15:57 51°19.562 2°56.789 3.6 76 5.7 101990 64
2004-03-26 15:58 51°19.405 2°56.572 3.8 67 5.7 101990 64
2004-03-26 15:59 51°19.247 2°56.35 4.6 77 5.7 101990 65
2004-03-26 16:00 51°19.09 2°56.133 3.9 75 5.7 101990 64
2004-03-26 16:01 51°18.933 2°55.92 4.5 78 5.7 101980 64
2004-03-26 16:02 51°18.774 2°55.703 3.6 75 5.6 101990 64
2004-03-26 16:03 51°18.603 2°55.49 4.6 93 5.7 101980 65
2004-03-26 16:04 51°18.436 2°55.294 3.7 90 5.7 101980 66
2004-03-26 16:05 51°18.268 2°55.091 3.6 75 5.8 101990 66
2004-03-26 16:06 51°18.1 2°54.889 4 56 5.7 101990 64
2004-03-26 16:07 51°17.926 2°54.679 3.5 75 5.7 102020 66
2004-03-26 16:08 51°17.756 2°54.481 3.8 75 5.7 102020 66
2004-03-26 16:09 51°17.579 2°54.291 4.4 68 5.6 102010 66
2004-03-26 16:10 51°17.397 2°54.101 3.9 67 5.6 102010 65
2004-03-26 16:11 51°17.223 2°53.924 3.9 92 5.6 102010 65
2004-03-26 16:12 51°17.036 2°53.763 2.4 74 5.6 102020 65
2004-03-26 16:13 51°16.829 2°53.671 1.1 53 5.6 102020 65
2004-03-26 16:14 51°16.619 2°53.666 1.7 338 5.6 102020 65
2004-03-26 16:15 51°16.394 2°53.723 1 341 5.6 102020 64
2004-03-26 16:16 51°16.18 2°53.771 1.2 336 5.6 102020 64
2004-03-26 16:17 51°15.959 2°53.841 2.4 325 5.6 102020 65
2004-03-26 16:18 51°15.74 2°53.914 2.3 328 5.7 102020 65
2004-03-26 16:19 51°15.523 2°53.985 2 329 5.7 102020 64
2004-03-26 16:20 51°15.305 2°54.067 2 333 5.8 102020 64
2004-03-26 16:21 51°15.084 2°54.17 2.5 310 5.9 102020 63
2004-03-26 16:22 51°14.887 2°54.345 5 308 6 102020 64
2004-03-26 16:23 51°14.685 2°54.517 4.5 304 5.9 102020 64
2004-03-26 16:24 51°14.503 2°54.757 7.2 309 5.9 102010 66
2004-03-26 16:25 51°14.36 2°55.034 6.8 312 5.8 102010 64
2004-03-26 16:26 51°14.251 2°55.261 4.2 311 5.8 102020 64
2004-03-26 16:27 51°14.143 2°55.407 4.3 269 5.8 102020 65
2004-03-26 16:28 51°14.037 2°55.498 2.3 249 5.8 102020 66
2004-03-26 16:29 51°13.929 2°55.575 3.6 211 6 102020 67